Retour au catalogue

METEOR 2-20 DEB

ActifPO
NORAD 44699·DEBRIS·🇷🇺 Russia

Lancé Sep 28, 1990 depuis Plesetsk Cosmodrome

Loading…

Prochains Passages (prochaines 24 heures)

TLE

VieillissantSource: Space-Track

Époque: Sep 6, 2026, 07:21 UTC

1 44699U 90086D   26249.30665599  .00000425  00000-0  28634-3 0  9998
2 44699  82.5154  92.7261 0016487  88.3205 271.9851 13.98433521648930

Suivez METEOR 2-20 DEB en temps réel avec AllMySat

Download on the App Store